When you browse on this site, cookies collect data to enhance your experience and personalize the content and advertising you see.
Visit our Privacy Policy to learn more. By continuing to use the site, you agree to this use of cookies and data.
  • în România
  • Lista ţărilor
  • Pe 7 zile
  • Temperatura apei
  • Hartă satelitară
  • Meteo pe hartă
  • Widget-uri
  • user-avatar
    Intrare

    Meteo pe oră la Asciano

    Astăzi, 22 Februarie, Vineri

    Timp Temperatura Precipitaţii Vânt Presiune Umiditate
    00:00 +6°C° 0 mm 1 m/s 748 mmHg 92%
    01:00 +6°C° 0 mm 1 m/s 748 mmHg 92%
    02:00 +6°C° 0 mm 1 m/s 748 mmHg 93%
    03:00 +6°C° 0 mm 1 m/s 748 mmHg 93%
    04:00 +6°C° 0 mm 1 m/s 747 mmHg 93%
    05:00 +6°C° 0 mm 1 m/s 747 mmHg 94%
    06:00 +6°C° 0 mm 1 m/s 747 mmHg 94%
    07:00 +6°C° 0 mm 1 m/s 747 mmHg 95%
    08:00 +8°C° 0 mm 1 m/s 747 mmHg 89%
    09:00 +9°C° 0 mm 1 m/s 747 mmHg 84%
    10:00 +10°C° 0 mm 2 m/s 747 mmHg 79%
    11:00 +12°C° 0 mm 2 m/s 747 mmHg 72%
    12:00 +14°C° 0 mm 2 m/s 747 mmHg 66%
    13:00 +15°C° 0 mm 2 m/s 747 mmHg 59%
    14:00 +15°C° 0 mm 2 m/s 747 mmHg 58%
    15:00 +16°C° 0 mm 3 m/s 747 mmHg 57%
    16:00 +16°C° 0 mm 3 m/s 747 mmHg 56%
    17:00 +13°C° 0 mm 3 m/s 747 mmHg 62%
    18:00 +13°C° 0 mm 2 m/s 747 mmHg 67%
    19:00 +10°C° 0 mm 2 m/s 747 mmHg 72%
    20:00 +9°C° 0 mm 2 m/s 748 mmHg 73%
    21:00 +9°C° 0 mm 2 m/s 748 mmHg 74%
    22:00 +8°C° 0 mm 2 m/s 749 mmHg 75%
    23:00 +8°C° 0 mm 3 m/s 749 mmHg 71%

    Mâine, 23 Februarie, Sâmbătă

    Timp Temperatura Precipitaţii Vânt Presiune Umiditate
    00:00 +6°C° 0 mm 5 m/s 750 mmHg 66%
    01:00 +5°C° 0 mm 6 m/s 750 mmHg 62%
    02:00 +4°C° 0 mm 6 m/s 750 mmHg 58%
    03:00 +3°C° 0 mm 5 m/s 750 mmHg 55%
    04:00 +2°C° 0 mm 5 m/s 750 mmHg 51%
    05:00 +2°C° 0 mm 5 m/s 750 mmHg 52%
    06:00 +1°C° 0 mm 5 m/s 751 mmHg 52%
    07:00 +1°C° 0 mm 5 m/s 751 mmHg 52%
    08:00 +2°C° 0 mm 6 m/s 751 mmHg 50%
    09:00 +3°C° 0 mm 7 m/s 752 mmHg 47%
    10:00 +2°C° 0 mm 8 m/s 752 mmHg 45%
    11:00 +4°C° 0 mm 8 m/s 752 mmHg 43%
    12:00 +5°C° 0 mm 8 m/s 752 mmHg 41%
    13:00 +5°C° 0 mm 8 m/s 752 mmHg 39%
    14:00 +5°C° 0 mm 8 m/s 752 mmHg 39%
    15:00 +4°C° 0 mm 8 m/s 752 mmHg 38%
    16:00 +4°C° 0 mm 8 m/s 752 mmHg 38%
    17:00 +3°C° 0 mm 7 m/s 752 mmHg 40%
    18:00 +1°C° 0 mm 6 m/s 752 mmHg 41%
    19:00 0°C° 0 mm 5 m/s 752 mmHg 43%
    20:00 0°C° 0 mm 5 m/s 752 mmHg 43%
    21:00 -1°C° 0 mm 4 m/s 752 mmHg 44%
    22:00 -1°C° 0 mm 4 m/s 753 mmHg 45%
    23:00 -1°C° 0 mm 4 m/s 753 mmHg 46%

    Poimâine, 24 Februarie, Duminică

    Timp Temperatura Precipitaţii Vânt Presiune Umiditate
    00:00 -1°C° 0 mm 4 m/s 753 mmHg 47%
    01:00 -1°C° 0 mm 4 m/s 753 mmHg 48%
    02:00 -2°C° 0 mm 4 m/s 753 mmHg 48%
    03:00 -2°C° 0 mm 4 m/s 753 mmHg 48%
    04:00 -2°C° 0 mm 4 m/s 752 mmHg 49%
    05:00 -2°C° 0 mm 4 m/s 752 mmHg 49%
    06:00 -2°C° 0 mm 4 m/s 752 mmHg 49%
    07:00 -1°C° 0 mm 3 m/s 752 mmHg 50%
    08:00 0°C° 0 mm 5 m/s 753 mmHg 45%
    09:00 +2°C° 0 mm 6 m/s 753 mmHg 40%
    10:00 +4°C° 0 mm 8 m/s 753 mmHg 35%
    11:00 +5°C° 0 mm 8 m/s 753 mmHg 34%
    12:00 +6°C° 0 mm 8 m/s 753 mmHg 32%
    13:00 +7°C° 0 mm 9 m/s 752 mmHg 31%
    14:00 +7°C° 0 mm 8 m/s 752 mmHg 32%
    15:00 +6°C° 0 mm 8 m/s 752 mmHg 33%
    16:00 +6°C° 0 mm 8 m/s 751 mmHg 35%
    17:00 +4°C° 0 mm 7 m/s 752 mmHg 39%
    18:00 +2°C° 0 mm 5 m/s 752 mmHg 43%
    19:00 0°C° 0 mm 4 m/s 752 mmHg 47%
    20:00 +1°C° 0 mm 3 m/s 753 mmHg 50%
    21:00 +1°C° 0 mm 3 m/s 753 mmHg 53%
    22:00 0°C° 0 mm 3 m/s 753 mmHg 56%
    23:00 +1°C° 0 mm 2 m/s 754 mmHg 59%

    25 Februarie, Luni

    Timp Temperatura Precipitaţii Vânt Presiune Umiditate
    00:00 +1°C° 0 mm 2 m/s 754 mmHg 61%
    01:00 +1°C° 0 mm 2 m/s 754 mmHg 63%
    02:00 +1°C° 0 mm 2 m/s 754 mmHg 65%
    03:00 +1°C° 0 mm 2 m/s 753 mmHg 66%
    04:00 +1°C° 0 mm 2 m/s 753 mmHg 67%
    05:00 +1°C° 0 mm 2 m/s 753 mmHg 66%
    06:00 +1°C° 0 mm 2 m/s 753 mmHg 66%
    07:00 +1°C° 0 mm 2 m/s 753 mmHg 65%
    08:00 +2°C° 0 mm 3 m/s 753 mmHg 58%
    09:00 +5°C° 0 mm 4 m/s 753 mmHg 51%
    10:00 +7°C° 0 mm 5 m/s 754 mmHg 45%
    11:00 +9°C° 0 mm 5 m/s 753 mmHg 44%
    12:00 +10°C° 0 mm 6 m/s 753 mmHg 43%
    13:00 +11°C° 0 mm 6 m/s 753 mmHg 42%
    14:00 +11°C° 0 mm 6 m/s 752 mmHg 44%
    15:00 +12°C° 0 mm 5 m/s 752 mmHg 47%
    16:00 +10°C° 0 mm 5 m/s 752 mmHg 49%
    17:00 +8°C° 0 mm 4 m/s 752 mmHg 55%
    18:00 +6°C° 0 mm 4 m/s 752 mmHg 60%
    19:00 +4°C° 0 mm 3 m/s 752 mmHg 66%
    20:00 +4°C° 0 mm 3 m/s 752 mmHg 67%
    21:00 +5°C° 0 mm 2 m/s 751 mmHg 68%
    22:00 +4°C° 0 mm 2 m/s 751 mmHg 69%
    23:00 +4°C° 0 mm 2 m/s 751 mmHg 68%

    26 Februarie, Marţi

    Timp Temperatura Precipitaţii Vânt Presiune Umiditate
    00:00 +4°C° 0 mm 2 m/s 751 mmHg 67%
    01:00 +4°C° 0 mm 2 m/s 751 mmHg 66%
    02:00 +3°C° 0 mm 3 m/s 751 mmHg 66%
    03:00 +3°C° 0 mm 3 m/s 750 mmHg 67%
    04:00 +3°C° 0 mm 3 m/s 750 mmHg 67%
    05:00 +3°C° 0 mm 3 m/s 750 mmHg 68%
    06:00 +4°C° 0 mm 2 m/s 749 mmHg 70%
    07:00 +3°C° 0 mm 2 m/s 749 mmHg 71%
    08:00 +5°C° 0 mm 4 m/s 749 mmHg 64%
    09:00 +8°C° 0 mm 5 m/s 750 mmHg 57%
    10:00 +10°C° 0 mm 6 m/s 750 mmHg 49%
    11:00 +13°C° 0 mm 6 m/s 750 mmHg 46%
    12:00 +14°C° 0 mm 6 m/s 750 mmHg 42%
    13:00 +15°C° 0 mm 6 m/s 749 mmHg 39%
    14:00 +15°C° 0 mm 5 m/s 749 mmHg 40%
    15:00 +15°C° 0 mm 5 m/s 749 mmHg 41%
    16:00 +14°C° 0 mm 4 m/s 748 mmHg 42%
    17:00 +12°C° 0 mm 3 m/s 748 mmHg 47%
    18:00 +10°C° 0 mm 3 m/s 748 mmHg 53%
    19:00 +8°C° 0 mm 2 m/s 748 mmHg 58%
    20:00 +8°C° 0 mm 2 m/s 748 mmHg 59%
    21:00 +7°C° 0 mm 2 m/s 748 mmHg 60%
    22:00 +7°C° 0 mm 2 m/s 749 mmHg 61%
    23:00 +7°C° 0 mm 2 m/s 748 mmHg 61%

    27 Februarie, Miercuri

    Timp Temperatura Precipitaţii Vânt Presiune Umiditate
    00:00 +8°C° 0 mm 2 m/s 748 mmHg 60%
    01:00 +8°C° 0 mm 2 m/s 748 mmHg 59%
    02:00 +7°C° 0 mm 2 m/s 748 mmHg 61%
    03:00 +7°C° 0 mm 2 m/s 748 mmHg 62%
    04:00 +7°C° 0 mm 2 m/s 748 mmHg 63%
    05:00 +7°C° 0 mm 2 m/s 748 mmHg 63%
    06:00 +7°C° 0 mm 2 m/s 748 mmHg 62%
    07:00 +7°C° 0 mm 2 m/s 748 mmHg 62%
    08:00 +9°C° 0 mm 2 m/s 748 mmHg 57%
    09:00 +12°C° 0 mm 3 m/s 748 mmHg 53%
    10:00 +14°C° 0 mm 3 m/s 749 mmHg 48%
    11:00 +15°C° 0 mm 4 m/s 749 mmHg 45%
    12:00 +18°C° 0 mm 4 m/s 749 mmHg 43%
    13:00 +19°C° 0 mm 5 m/s 749 mmHg 40%
    14:00 +19°C° 0 mm 4 m/s 748 mmHg 40%
    15:00 +19°C° 0 mm 4 m/s 748 mmHg 40%
    16:00 +18°C° 0 mm 4 m/s 747 mmHg 39%
    17:00 +16°C° 0 mm 3 m/s 747 mmHg 41%
    18:00 +14°C° 0 mm 2 m/s 747 mmHg 43%
    19:00 +10°C° 0 mm 2 m/s 747 mmHg 45%
    20:00 +10°C° 0 mm 2 m/s 747 mmHg 44%
    21:00 +10°C° 0 mm 1 m/s 747 mmHg 42%
    22:00 +9°C° 0 mm 1 m/s 747 mmHg 41%
    23:00 +9°C° 0 mm 1 m/s 747 mmHg 40%
    Arată mai mult